SCP
2 1 1 1 1 1 1 1 1 2 1 1 1 0 0 0 0 0 0 0 0 0 0 0 0 0 0 0 0 0 0 0 0 0 0 0 0 0 -0 0 -0 -0 -0
2 1 1 1 1 1 1 1 1 2 1 1 1 0 0 0 0 0 0 0 0 0 0 0 0 0 0 0 0 0 0 0 0 0 0 0 0 -0 0 -0 -0 -0 -0
1 1 1 1 1 1 1 1 1 1 1 1 1 1 1 1 0 0 0 0 0 0 0 0 0 0 0 0 0 0 0 0 0 0 0 0 0 0 0 -0 -0 -0 -0
1 1 0 1 1 1 1 1 1 1 1 1 1 1 1 1 0 0 0 0 0 0 0 0 0 0 0 0 0 0 0 0 0 0 0 0 0 0 0 0 0 0 -0
0 0 0 1 1 1 1 1 1 1 1 1 1 1 1 1 1 0 0 0 0 0 0 0 0 0 0 0 0 0 0 0 0 0 0 0 0 0 0 0 0 0 -0
0 0 0 1 1 1 1 1 1 1 1 1 1 1 1 0 0 0 0 0 0 0 0 0 0 0 0 0 0 0 0 0 0 0 0 0 0 0 0 0 0 0 -0
0 1 1 1 1 0 1 1 1 1 1 1 0 0 0 0 0 0 0 0 0 0 0 0 0 0 0 0 0 0 0 0 0 0 0 0 0 0 0 0 0 -0 -0
1 1 1 0 0 0 1 1 1 1 1 0 0 0 0 0 0 0 0 0 0 0 0 0 0 0 0 0 0 0 0 0 0 0 0 0 0 0 0 0 -0 -0 -0
1 1 0 0 0 1 1 1 1 1 0 0 0 0 0 0 0 0 0 0 0 0 0 0 0 0 0 0 0 0 0 0 0 0 0 0 0 0 -0 -0 0 -0 -0
1 1 0 0 1 1 1 1 0 0 0 0 0 0 0 0 0 0 0 0 0 0 0 0 0 0 0 0 0 0 0 0 0 0 0 0 0 -0 -0 -0 -0 -0 -0
1 1 0 1 1 0 0 0 0 0 0 0 0 0 0 0 0 0 0 0 0 0 0 0 0 0 0 0 0 0 0 0 0 0 0 0 0 -0 -0 -0 0 0 0
1 1 0 0 0 0 0 0 0 0 0 0 0 0 0 0 0 0 0 0 0 0 0 0 0 0 0 0 0 0 0 0 0 0 0 0 0 -0 -0 0 0 0 0
0 0 0 0 0 0 0 0 0 0 0 0 0 0 0 0 -0 0 0 0 0 0 0 0 0 0 0 0 0 0 0 0 0 0 0 0 -0 -0 0 0 0 0 0
0 0 0 0 0 0 0 0 0 0 0 0 -0 0 0 -0 0 0 0 0 0 0 0 0 0 0 0 0 0 0 0 0 0 0 0 0 0 0 0 0 0 0 -0
0 0 0 0 0 0 0 0 0 0 0 0 0 -0 0 0 0 0 0 0 0 0 0 0 0 0 0 0 0 0 0 0 0 0 0 0 0 0 0 0 0 0 0
0 0 0 0 0 0 0 0 0 0 0 0 -0 0 0 0 -0 0 0 0 0 0 0 0 0 0 0 0 0 0 0 0 0 0 0 0 0 0 -0 0 0 0 -0
0 0 0 0 0 0 0 0 0 0 0 0 -0 -0 0 0 -0 0 0 0 -0 0 0 0 0 0 0 0 0 0 0 0 0 0 -0 -0 -0 0 0 0 0 0 0
0 0 0 0 0 0 0 0 0 0 0 0 -0 0 -0 -0 -0 0 0 0 0 0 0 0 0 0 0 0 0 0 0 0 0 0 -0 0 0 0 0 0 0 0 0
0 0 0 0 0 0 0 0 0 0 0 0 0 -0 0 -0 -0 0 0 0 0 0 0 0 0 0 0 0 0 0 0 0 0 0 0 0 0 0 0 0 0 0 0
0 0 0 0 0 0 0 0 0 0 0 0 0 0 0 0 0 0 0 0 0 0 0 0 0 0 0 0 0 0 0 0 0 0 0 0 0 0 0 0 0 0 0
0 0 0 0 0 0 0 0 0 0 0 -0 -0 0 0 0 0 0 0 0 0 0 0 0 0 0 0 0 0 0 0 0 0 0 0 0 0 0 0 0 0 0 -0
0 0 0 0 -0 0 0 0 0 0 0 0 -0 0 0 0 0 0 0 0 0 0 0 0 0 0 0 0 0 0 0 0 0 0 0 0 0 0 0 0 -0 0 -0
0 0 0 -0 -0 -0 0 0 0 0 0 0 0 0 -0 -0 0 0 0 0 0 0 0 0 0 0 0 0 0 0 0 0 0 0 0 0 0 0 0 0 0 0 -0
0 0 0 -0 -0 -0 0 0 -0 0 0 0 0 0 0 0 0 0 0 0 0 0 0 0 0 0 0 0 0 0 0 0 0 0 0 0 0 0 0 0 0 -0 -0
0 0 0 0 -0 -0 -0 0 0 0 0 0 0 -0 0 0 0 0 0 0 0 0 0 0 0 0 0 0 0 0 0 0 0 0 0 0 0 0 0 0 -0 0 0
-0 0 0 0 0 -0 -0 0 0 0 0 0 -0 0 -0 -0 0 0 0 0 0 0 0 0 0 0 0 0 0 0 0 0 0 0 0 0 0 0 0 0 -0 0 -0
Wind_Speed_500mb
91 82 74 62 58 52 47 43 39 35 31 29 27 24 25 23 23 23 20 19 18 21 22 34 40 38 37 36 39 30 28 33 32 39 37 40 40 35 31 32 27 29 29
95 87 75 69 60 55 50 47 40 33 33 34 32 29 28 28 29 29 27 27 26 26 19 22 32 35 36 34 38 32 27 36 37 39 34 34 35 30 30 27 32 29 29
91 88 76 74 64 57 56 49 38 38 38 38 35 32 33 32 32 33 31 29 25 27 26 22 28 33 38 38 36 33 30 33 38 35 33 32 32 27 25 28 29 29 24
77 72 72 75 66 58 57 48 40 37 39 39 36 35 35 36 35 35 36 29 25 25 27 30 28 34 35 39 40 33 30 32 39 36 33 32 32 28 27 24 26 22 20
61 49 58 63 60 58 54 45 38 36 36 38 36 36 36 38 37 39 39 33 30 29 25 29 27 32 31 38 38 34 28 32 40 39 38 36 36 33 28 24 22 21 21
44 40 45 52 51 52 48 40 31 30 32 32 37 41 42 40 43 43 37 31 27 30 26 30 24 28 29 30 32 33 29 30 39 40 36 34 32 37 34 25 20 20 28
35 36 41 41 39 47 41 34 28 26 29 33 39 43 42 40 38 37 33 34 32 32 31 30 27 27 26 26 29 33 31 30 38 38 35 33 30 25 19 16 17 23 39
30 34 32 30 34 38 40 31 25 27 33 35 35 33 20 17 25 29 31 28 33 32 30 29 30 25 27 21 17 25 30 29 36 37 37 34 29 29 23 20 25 33 33
30 27 24 28 30 33 30 27 31 32 34 33 32 20 10 10 5 17 29 29 32 31 30 31 33 30 24 19 15 23 27 27 33 34 35 34 32 31 26 24 26 27 33
30 28 29 31 28 27 27 28 32 32 32 27 25 27 30 20 8 6 14 32 37 33 25 27 34 37 26 17 17 18 24 28 30 33 35 35 34 38 29 27 22 32 24
34 31 34 30 26 30 25 24 30 32 27 23 21 23 27 26 16 9 12 15 30 33 27 26 31 36 34 26 17 16 24 27 30 30 34 38 36 36 31 28 32 29 29
29 33 34 33 30 27 24 28 29 25 22 18 19 24 22 25 28 22 9 9 17 31 27 28 31 29 29 30 24 20 19 27 32 29 33 39 37 37 31 31 35 35 37
37 33 29 27 25 24 28 27 22 20 16 14 13 22 23 22 19 23 15 16 16 24 28 29 28 31 24 29 25 23 17 26 31 31 34 39 41 38 41 37 34 39 41
27 22 24 26 25 28 26 22 21 19 19 15 14 17 19 22 26 19 18 24 22 26 28 30 28 29 28 29 26 26 23 25 32 31 37 46 41 39 40 37 39 41 41
24 23 23 24 25 21 20 20 22 22 21 16 15 18 18 18 22 24 23 27 21 21 18 27 27 30 29 28 28 24 22 29 34 35 41 44 43 48 40 41 38 41 36
21 20 19 20 18 17 16 19 19 21 19 17 19 22 21 21 21 23 31 29 26 21 22 35 27 33 32 30 27 25 27 33 34 37 42 46 43 48 46 47 47 39 35
18 18 19 17 15 13 13 13 17 21 22 19 17 17 16 21 24 25 29 32 27 28 23 35 31 24 29 31 34 31 30 33 31 31 45 48 43 53 47 51 42 38 41
23 23 19 14 9 9 14 15 17 18 21 26 24 18 15 16 24 30 31 31 28 28 22 37 34 27 27 29 36 36 35 31 29 37 40 50 42 54 42 41 39 41 38
26 22 15 7 2 5 4 3 8 15 26 34 28 31 18 20 22 31 31 31 32 31 23 30 40 42 39 32 42 44 40 40 42 54 77 47 59 51 50 46 38 42 37
25 17 11 2 3 4 5 7 13 13 20 37 38 31 26 22 21 24 32 34 35 32 31 37 45 46 46 47 51 51 52 69 62 54 47 50 52 46 44 37 41 35 28
21 13 5 5 6 7 7 6 4 1 5 7 25 24 24 22 23 24 31 39 40 37 39 48 53 53 58 69 71 72 83 71 58 57 59 58 52 43 40 40 41 31 21
17 14 6 6 8 8 10 9 5 4 12 17 19 21 22 25 28 31 28 25 36 44 44 59 61 66 67 75 64 68 76 70 83 64 61 57 53 52 45 42 28 25 24
18 13 5 6 10 10 11 12 6 16 15 14 14 16 24 27 28 31 32 30 33 33 31 54 60 68 74 66 68 74 69 66 71 67 56 57 48 48 36 32 31 26 21
18 11 4 6 10 12 12 12 14 14 12 11 13 14 19 29 33 31 33 32 31 31 39 50 52 49 53 76 55 77 66 73 72 70 60 48 48 40 36 31 27 23 20
19 11 6 5 8 12 13 13 14 11 17 13 17 22 25 29 29 36 46 49 46 45 42 42 46 46 55 60 57 72 75 78 76 67 57 36 47 44 35 30 25 22 19
19 11 6 4 7 11 12 13 15 15 21 32 32 30 29 35 39 44 49 52 51 48 47 40 48 56 46 51 62 68 75 61 51 44 49 43 46 39 25 27 24 23 20
Wind_Direction_500mb
246 241 242 241 244 242 248 249 252 251 252 254 254 261 268 270 265 263 260 256 260 266 258 240 237 236 236 236 230 229 232 217 212 210 214 210 215 210 204 218 213 203 211
250 246 244 243 247 248 248 249 251 252 254 252 253 260 269 268 264 261 260 258 258 259 260 241 231 233 234 233 217 219 226 214 210 216 216 211 208 206 212 211 206 207 215
252 252 245 244 248 248 245 246 253 254 256 255 258 265 268 271 264 262 263 264 257 252 248 246 236 231 230 229 222 225 228 219 210 212 207 203 212 212 216 210 208 209 210
258 256 248 244 245 243 242 245 249 251 256 258 262 268 269 271 263 259 258 262 256 251 248 243 248 234 232 230 228 226 224 220 209 204 205 208 213 216 208 207 203 200 205
261 257 247 244 241 239 239 242 241 252 260 261 266 268 272 270 265 260 257 253 254 252 250 235 238 226 227 220 222 229 227 218 210 207 204 207 205 208 201 191 194 203 199
262 246 240 234 233 231 230 229 236 250 259 264 264 271 271 272 268 265 252 242 247 243 245 235 221 218 210 219 220 223 228 219 207 209 203 202 204 209 199 182 189 202 195
245 235 224 227 221 220 220 216 233 246 263 267 267 274 278 274 265 256 239 230 241 236 240 233 224 213 209 214 227 228 219 212 208 205 202 197 193 195 191 177 182 192 186
228 216 208 213 201 201 199 214 235 254 259 264 264 271 279 270 257 241 229 230 222 226 232 226 215 210 191 205 220 209 202 204 205 199 198 193 190 187 194 190 175 181 190
202 201 170 183 186 190 202 224 241 257 265 272 264 244 243 251 205 229 230 224 213 222 222 215 205 202 204 205 198 191 195 194 198 197 195 190 190 190 186 177 184 184 163
190 177 171 175 179 190 213 236 246 259 269 262 257 251 232 243 234 171 205 212 210 220 224 212 209 201 207 200 189 192 194 194 192 197 191 189 185 185 184 182 182 177 160
169 175 177 181 184 203 222 256 257 268 262 246 252 252 230 223 217 181 157 173 210 217 214 205 197 203 214 212 199 192 192 191 192 196 187 187 185 190 181 172 182 173 156
177 175 183 197 213 223 240 253 264 256 252 246 248 239 228 224 227 215 173 161 193 199 201 195 197 197 198 203 201 187 194 194 192 190 188 185 183 187 181 183 172 156 155
176 182 192 206 224 233 251 257 244 241 236 235 248 244 232 230 233 229 210 192 180 187 193 188 192 189 194 189 188 186 179 189 189 184 184 186 186 180 175 179 169 161 154
167 183 203 217 233 249 245 228 233 231 233 249 247 250 234 227 227 221 212 188 162 176 180 187 188 191 193 193 191 194 191 185 183 182 181 183 187 179 173 176 171 157 164
178 197 209 229 238 221 218 229 232 233 242 254 247 248 240 226 220 212 202 190 174 166 173 179 180 187 192 196 193 198 193 182 178 177 181 188 180 181 169 173 172 166 158
192 207 216 203 198 203 214 231 236 238 239 241 239 240 238 234 222 206 203 199 196 183 176 181 180 191 194 192 193 191 179 178 178 176 183 186 185 180 175 169 163 152 155
192 176 174 182 190 205 223 243 251 239 224 220 226 227 230 231 220 209 200 199 203 197 181 179 179 174 189 194 182 174 171 175 169 178 187 178 179 173 174 164 153 154 158
157 152 154 161 182 232 256 264 250 234 224 217 211 218 229 215 214 206 201 201 200 182 172 177 169 168 168 173 169 165 165 164 167 171 171 175 169 174 162 148 162 169 166
147 145 151 166 239 285 300 292 264 253 235 228 223 219 224 214 208 203 192 190 188 174 181 180 171 164 159 167 156 155 152 146 156 177 166 167 170 164 157 156 164 151 154
145 141 149 122 17 356 330 296 296 274 254 238 218 221 218 210 207 193 198 190 177 166 162 164 163 162 163 160 159 152 144 145 140 150 156 157 145 148 155 163 149 155 162
146 148 110 64 30 19 12 12 347 21 203 213 179 193 199 196 191 180 175 175 178 161 165 167 162 166 164 161 159 154 145 143 144 156 147 148 155 151 149 151 165 168 180
145 157 88 66 48 45 57 61 52 118 142 135 161 178 188 178 168 166 172 182 184 183 176 170 166 164 167 169 159 166 164 153 147 158 157 158 161 159 165 167 171 178 178
155 141 90 80 57 67 66 78 87 122 121 137 151 173 186 183 176 171 174 182 191 195 205 179 172 175 170 170 162 163 156 161 156 158 159 152 163 170 167 172 175 179 185
153 166 114 97 65 76 78 82 92 122 125 130 145 154 156 176 178 169 160 158 168 170 178 177 177 178 170 166 173 167 170 165 156 162 169 160 171 175 179 179 186 189 183
167 175 135 104 84 83 93 86 91 109 120 119 119 130 138 145 160 164 160 157 162 161 167 170 177 165 166 169 173 169 163 159 158 166 177 190 175 177 181 190 196 193 197
178 176 157 122 115 97 110 89 91 115 118 113 111 108 118 133 149 148 149 149 152 159 161 164 171 165 169 173 176 171 162 158 162 164 174 174 171 171 188 199 202 204 211
Wind_Speed_850mb
91 82 74 62 58 52 47 43 39 35 31 29 27 24 25 23 23 23 20 19 18 21 22 34 40 38 37 36 39 30 28 33 32 39 37 40 40 35 31 32 27 29 29
95 87 75 69 60 55 50 47 40 33 33 34 32 29 28 28 29 29 27 27 26 26 19 22 32 35 36 34 38 32 27 36 37 39 34 34 35 30 30 27 32 29 29
91 88 76 74 64 57 56 49 38 38 38 38 35 32 33 32 32 33 31 29 25 27 26 22 28 33 38 38 36 33 30 33 38 35 33 32 32 27 25 28 29 29 24
77 72 72 75 66 58 57 48 40 37 39 39 36 35 35 36 35 35 36 29 25 25 27 30 28 34 35 39 40 33 30 32 39 36 33 32 32 28 27 24 26 22 20
61 49 58 63 60 58 54 45 38 36 36 38 36 36 36 38 37 39 39 33 30 29 25 29 27 32 31 38 38 34 28 32 40 39 38 36 36 33 28 24 22 21 21
44 40 45 52 51 52 48 40 31 30 32 32 37 41 42 40 43 43 37 31 27 30 26 30 24 28 29 30 32 33 29 30 39 40 36 34 32 37 34 25 20 20 28
35 36 41 41 39 47 41 34 28 26 29 33 39 43 42 40 38 37 33 34 32 32 31 30 27 27 26 26 29 33 31 30 38 38 35 33 30 25 19 16 17 23 39
30 34 32 30 34 38 40 31 25 27 33 35 35 33 20 17 25 29 31 28 33 32 30 29 30 25 27 21 17 25 30 29 36 37 37 34 29 29 23 20 25 33 33
30 27 24 28 30 33 30 27 31 32 34 33 32 20 10 10 5 17 29 29 32 31 30 31 33 30 24 19 15 23 27 27 33 34 35 34 32 31 26 24 26 27 33
30 28 29 31 28 27 27 28 32 32 32 27 25 27 30 20 8 6 14 32 37 33 25 27 34 37 26 17 17 18 24 28 30 33 35 35 34 38 29 27 22 32 24
34 31 34 30 26 30 25 24 30 32 27 23 21 23 27 26 16 9 12 15 30 33 27 26 31 36 34 26 17 16 24 27 30 30 34 38 36 36 31 28 32 29 29
29 33 34 33 30 27 24 28 29 25 22 18 19 24 22 25 28 22 9 9 17 31 27 28 31 29 29 30 24 20 19 27 32 29 33 39 37 37 31 31 35 35 37
37 33 29 27 25 24 28 27 22 20 16 14 13 22 23 22 19 23 15 16 16 24 28 29 28 31 24 29 25 23 17 26 31 31 34 39 41 38 41 37 34 39 41
27 22 24 26 25 28 26 22 21 19 19 15 14 17 19 22 26 19 18 24 22 26 28 30 28 29 28 29 26 26 23 25 32 31 37 46 41 39 40 37 39 41 41
24 23 23 24 25 21 20 20 22 22 21 16 15 18 18 18 22 24 23 27 21 21 18 27 27 30 29 28 28 24 22 29 34 35 41 44 43 48 40 41 38 41 36
21 20 19 20 18 17 16 19 19 21 19 17 19 22 21 21 21 23 31 29 26 21 22 35 27 33 32 30 27 25 27 33 34 37 42 46 43 48 46 47 47 39 35
18 18 19 17 15 13 13 13 17 21 22 19 17 17 16 21 24 25 29 32 27 28 23 35 31 24 29 31 34 31 30 33 31 31 45 48 43 53 47 51 42 38 41
23 23 19 14 9 9 14 15 17 18 21 26 24 18 15 16 24 30 31 31 28 28 22 37 34 27 27 29 36 36 35 31 29 37 40 50 42 54 42 41 39 41 38
26 22 15 7 2 5 4 3 8 15 26 34 28 31 18 20 22 31 31 31 32 31 23 30 40 42 39 32 42 44 40 40 42 54 77 47 59 51 50 46 38 42 37
25 17 11 2 3 4 5 7 13 13 20 37 38 31 26 22 21 24 32 34 35 32 31 37 45 46 46 47 51 51 52 69 62 54 47 50 52 46 44 37 41 35 28
21 13 5 5 6 7 7 6 4 1 5 7 25 24 24 22 23 24 31 39 40 37 39 48 53 53 58 69 71 72 83 71 58 57 59 58 52 43 40 40 41 31 21
17 14 6 6 8 8 10 9 5 4 12 17 19 21 22 25 28 31 28 25 36 44 44 59 61 66 67 75 64 68 76 70 83 64 61 57 53 52 45 42 28 25 24
18 13 5 6 10 10 11 12 6 16 15 14 14 16 24 27 28 31 32 30 33 33 31 54 60 68 74 66 68 74 69 66 71 67 56 57 48 48 36 32 31 26 21
18 11 4 6 10 12 12 12 14 14 12 11 13 14 19 29 33 31 33 32 31 31 39 50 52 49 53 76 55 77 66 73 72 70 60 48 48 40 36 31 27 23 20
19 11 6 5 8 12 13 13 14 11 17 13 17 22 25 29 29 36 46 49 46 45 42 42 46 46 55 60 57 72 75 78 76 67 57 36 47 44 35 30 25 22 19
19 11 6 4 7 11 12 13 15 15 21 32 32 30 29 35 39 44 49 52 51 48 47 40 48 56 46 51 62 68 75 61 51 44 49 43 46 39 25 27 24 23 20
Wind_Direction_850mb
246 241 242 241 244 242 248 249 252 251 252 254 254 261 268 270 265 263 260 256 260 266 258 240 237 236 236 236 230 229 232 217 212 210 214 210 215 210 204 218 213 203 211
250 246 244 243 247 248 248 249 251 252 254 252 253 260 269 268 264 261 260 258 258 259 260 241 231 233 234 233 217 219 226 214 210 216 216 211 208 206 212 211 206 207 215
252 252 245 244 248 248 245 246 253 254 256 255 258 265 268 271 264 262 263 264 257 252 248 246 236 231 230 229 222 225 228 219 210 212 207 203 212 212 216 210 208 209 210
258 256 248 244 245 243 242 245 249 251 256 258 262 268 269 271 263 259 258 262 256 251 248 243 248 234 232 230 228 226 224 220 209 204 205 208 213 216 208 207 203 200 205
261 257 247 244 241 239 239 242 241 252 260 261 266 268 272 270 265 260 257 253 254 252 250 235 238 226 227 220 222 229 227 218 210 207 204 207 205 208 201 191 194 203 199
262 246 240 234 233 231 230 229 236 250 259 264 264 271 271 272 268 265 252 242 247 243 245 235 221 218 210 219 220 223 228 219 207 209 203 202 204 209 199 182 189 202 195
245 235 224 227 221 220 220 216 233 246 263 267 267 274 278 274 265 256 239 230 241 236 240 233 224 213 209 214 227 228 219 212 208 205 202 197 193 195 191 177 182 192 186
228 216 208 213 201 201 199 214 235 254 259 264 264 271 279 270 257 241 229 230 222 226 232 226 215 210 191 205 220 209 202 204 205 199 198 193 190 187 194 190 175 181 190
202 201 170 183 186 190 202 224 241 257 265 272 264 244 243 251 205 229 230 224 213 222 222 215 205 202 204 205 198 191 195 194 198 197 195 190 190 190 186 177 184 184 163
190 177 171 175 179 190 213 236 246 259 269 262 257 251 232 243 234 171 205 212 210 220 224 212 209 201 207 200 189 192 194 194 192 197 191 189 185 185 184 182 182 177 160
169 175 177 181 184 203 222 256 257 268 262 246 252 252 230 223 217 181 157 173 210 217 214 205 197 203 214 212 199 192 192 191 192 196 187 187 185 190 181 172 182 173 156
177 175 183 197 213 223 240 253 264 256 252 246 248 239 228 224 227 215 173 161 193 199 201 195 197 197 198 203 201 187 194 194 192 190 188 185 183 187 181 183 172 156 155
176 182 192 206 224 233 251 257 244 241 236 235 248 244 232 230 233 229 210 192 180 187 193 188 192 189 194 189 188 186 179 189 189 184 184 186 186 180 175 179 169 161 154
167 183 203 217 233 249 245 228 233 231 233 249 247 250 234 227 227 221 212 188 162 176 180 187 188 191 193 193 191 194 191 185 183 182 181 183 187 179 173 176 171 157 164
178 197 209 229 238 221 218 229 232 233 242 254 247 248 240 226 220 212 202 190 174 166 173 179 180 187 192 196 193 198 193 182 178 177 181 188 180 181 169 173 172 166 158
192 207 216 203 198 203 214 231 236 238 239 241 239 240 238 234 222 206 203 199 196 183 176 181 180 191 194 192 193 191 179 178 178 176 183 186 185 180 175 169 163 152 155
192 176 174 182 190 205 223 243 251 239 224 220 226 227 230 231 220 209 200 199 203 197 181 179 179 174 189 194 182 174 171 175 169 178 187 178 179 173 174 164 153 154 158
157 152 154 161 182 232 256 264 250 234 224 217 211 218 229 215 214 206 201 201 200 182 172 177 169 168 168 173 169 165 165 164 167 171 171 175 169 174 162 148 162 169 166
147 145 151 166 239 285 300 292 264 253 235 228 223 219 224 214 208 203 192 190 188 174 181 180 171 164 159 167 156 155 152 146 156 177 166 167 170 164 157 156 164 151 154
145 141 149 122 17 356 330 296 296 274 254 238 218 221 218 210 207 193 198 190 177 166 162 164 163 162 163 160 159 152 144 145 140 150 156 157 145 148 155 163 149 155 162
146 148 110 64 30 19 12 12 347 21 203 213 179 193 199 196 191 180 175 175 178 161 165 167 162 166 164 161 159 154 145 143 144 156 147 148 155 151 149 151 165 168 180
145 157 88 66 48 45 57 61 52 118 142 135 161 178 188 178 168 166 172 182 184 183 176 170 166 164 167 169 159 166 164 153 147 158 157 158 161 159 165 167 171 178 178
155 141 90 80 57 67 66 78 87 122 121 137 151 173 186 183 176 171 174 182 191 195 205 179 172 175 170 170 162 163 156 161 156 158 159 152 163 170 167 172 175 179 185
153 166 114 97 65 76 78 82 92 122 125 130 145 154 156 176 178 169 160 158 168 170 178 177 177 178 170 166 173 167 170 165 156 162 169 160 171 175 179 179 186 189 183
167 175 135 104 84 83 93 86 91 109 120 119 119 130 138 145 160 164 160 157 162 161 167 170 177 165 166 169 173 169 163 159 158 166 177 190 175 177 181 190 196 193 197
178 176 157 122 115 97 110 89 91 115 118 113 111 108 118 133 149 148 149 149 152 159 161 164 171 165 169 173 176 171 162 158 162 164 174 174 171 171 188 199 202 204 211